Weather History for Plymouth, MA

Change the Weather History Date:

Wednesday, September 11, 2013

  Actual Average Record
Temperature  
Mean Temperature 80 °F -  
Max Temperature 93 °F 75 °F 95 °F (1989)
Min Temperature 69 °F 53 °F 42 °F (1975)
Cooling Degree Days 15    
Growing Degree Days 30 (Base 50)    
Moisture  
Dew Point 69 °F    
Average Humidity 78    
Maximum Humidity 93    
Minimum Humidity 54    
Precipitation  
Precipitation 0.00 in - - ()
Sea Level Pressure  
Sea Level Pressure 30.06 in    
Wind  
Wind Speed 8 mph (SSW)    
Max Wind Speed 13 mph    
Max Gust Speed 24 mph    
Visibility 8 miles    
Events      
Averages and records for this station are not official NWS values.
T = Trace of Precipitation, MM = Missing Value Source: NWS Daily Summary

Daily Weather History Graph

Daily Weather History Graph

Search for Another Location

Airport:

Trip Planner

Search our weather history database for the weather conditions in past years. The results will help you decide how hot, cold, wet, or windy it might be!

Date:

Astronomy

Sep. 11, 2013 Rise Set
Actual Time 6:19 AM EDT 6:58 PM EDT
Civil Twilight 5:50 AM EDT 7:27 PM EDT
Nautical Twilight 5:17 AM EDT 8:00 PM EDT
Astronomical Twilight 4:43 AM EDT 8:34 PM EDT
Moon 12:50 PM EDT (9/11) 10:46 PM EDT (9/11)
Length of Visible Light 13h 36m
Length of Day
12h 39m
Waxing Crescent, 38% of the Moon is Illuminated
Sep 11
Waxing Crescent
Sep 12
First Quarter
Sep 19
Full
Sep 26
Last Quarter
Oct 4
New

Hourly Weather History & Observations

Time (EDT) Temp. Heat Index Dew Point Humidity Pressure Visibility Wind Dir Wind Speed Gust Speed Precip Events Conditions
12:52 AM 71.1 °F - 66.9 °F 87% 30.10 in 8.0 mi SSW 8.1 mph - N/A   Overcast
1:52 AM 71.1 °F - 68.0 °F 90% 30.09 in 7.0 mi SW 6.9 mph - N/A   Overcast
2:52 AM 71.1 °F - 68.0 °F 90% 30.08 in 6.0 mi Variable 4.6 mph - N/A   Mostly Cloudy
3:52 AM 71.1 °F - 68.0 °F 90% 30.08 in 6.0 mi Variable 4.6 mph - N/A   Scattered Clouds
4:52 AM 70.0 °F - 66.9 °F 90% 30.07 in 6.0 mi SW 5.8 mph - N/A   Clear
5:48 AM 69.8 °F - 66.2 °F 88% 30.08 in 5.0 mi SSW 5.8 mph - N/A   Scattered Clouds
5:52 AM 70.0 °F - 66.9 °F 90% 30.08 in 5.0 mi Variable 4.6 mph - N/A   Partly Cloudy
6:52 AM 69.1 °F - 66.9 °F 93% 30.09 in 3.0 mi SSW 4.6 mph - N/A   Scattered Clouds
7:12 AM 69.8 °F - 66.2 °F 88% 30.09 in 3.0 mi SSW 5.8 mph - N/A   Mostly Cloudy
7:52 AM 71.1 °F - 68.0 °F 90% 30.09 in 4.0 mi SSW 5.8 mph - N/A   Mostly Cloudy
8:38 AM 73.4 °F - 68.0 °F 83% 30.10 in 6.0 mi SSW 9.2 mph - N/A   Haze
8:52 AM 73.9 °F - 69.1 °F 85% 30.10 in 6.0 mi SW 6.9 mph - N/A   Haze
9:08 AM 75.2 °F - 69.8 °F 83% 30.10 in 7.0 mi SW 9.2 mph - N/A   Partly Cloudy
9:52 AM 79.0 °F - 70.0 °F 74% 30.09 in 8.0 mi SW 10.4 mph - N/A   Clear
10:52 AM 82.9 °F 88.0 °F 72.0 °F 69% 30.08 in 9.0 mi SSW 10.4 mph - N/A   Clear
11:52 AM 88.0 °F 96.5 °F 73.9 °F 63% 30.06 in 10.0 mi SW 9.2 mph - N/A   Clear
12:52 PM 91.0 °F 100.4 °F 73.9 °F 57% 30.04 in 10.0 mi WSW 11.5 mph - N/A   Clear
1:52 PM 91.9 °F 100.7 °F 73.0 °F 54% 30.03 in 10.0 mi SSW 10.4 mph - N/A   Clear
2:52 PM 90.0 °F 99.0 °F 73.9 °F 59% 30.01 in 10.0 mi South 8.1 mph - N/A   Clear
3:52 PM 88.0 °F 95.6 °F 73.0 °F 61% 30.00 in 10.0 mi SSE 8.1 mph - N/A   Clear
4:52 PM 87.1 °F 94.5 °F 73.0 °F 63% 29.99 in 9.0 mi SSW 6.9 mph 17.3 mph N/A   Clear
5:52 PM 84.0 °F 89.6 °F 72.0 °F 67% 29.99 in 8.0 mi SSW 12.7 mph 24.2 mph N/A   Clear
6:52 PM 80.1 °F 83.2 °F 70.0 °F 71% 29.99 in 10.0 mi SW 10.4 mph - N/A   Clear
7:52 PM 78.1 °F - 68.0 °F 71% 30.02 in 10.0 mi SW 11.5 mph - N/A   Clear
8:52 PM 77.0 °F - 68.0 °F 74% 30.03 in 10.0 mi SW 11.5 mph - N/A   Clear
9:52 PM 75.0 °F - 68.0 °F 79% 30.03 in 10.0 mi SSW 8.1 mph - N/A   Clear
10:52 PM 73.9 °F - 68.0 °F 82% 30.02 in 9.0 mi SSW 8.1 mph - N/A   Clear
11:52 PM 73.9 °F - 68.0 °F 82% 30.01 in 9.0 mi SW 5.8 mph - N/A   Partly Cloudy